QPF
0.00 0.00 0.00 0.00 0.00 0.00 0.00 0.00 0.00 0.00 0.00 0.00 0.00 0.00 0.00 0.01 0.00 0.00 0.00 0.00 0.00 0.00 0.00 0.00 0.02 0.00 0.00 0.00 0.00 0.00 0.00 0.00 0.00 0.01 0.02 0.01 0.00 0.02 0.02 0.03 0.04 0.05 0.10 0.05 0.13 0.01 0.01 0.01 0.00
0.00 0.00 0.00 0.00 0.00 0.00 0.00 0.00 0.00 0.00 0.00 0.00 0.00 0.00 0.00 0.01 0.00 0.00 0.00 0.00 0.00 0.00 0.00 0.00 0.00 0.00 0.00 0.00 0.00 0.00 0.00 0.00 0.00 0.00 0.01 0.02 0.04 0.03 0.02 0.05 0.08 0.04 0.11 0.10 0.13 0.09 0.04 0.01 0.00
0.00 0.00 0.00 0.00 0.00 0.00 0.00 0.00 0.00 0.00 0.00 0.00 0.00 0.00 0.00 0.01 0.00 0.00 0.00 0.00 0.00 0.00 0.00 0.00 0.00 0.00 0.00 0.00 0.00 0.00 0.00 0.00 0.00 0.00 0.00 0.00 0.02 0.04 0.05 0.09 0.03 0.00 0.04 0.04 0.05 0.11 0.21 0.05 0.01
0.00 0.00 0.00 0.00 0.00 0.00 0.00 0.00 0.00 0.00 0.00 0.00 0.00 0.00 0.00 0.01 0.00 0.00 0.00 0.00 0.00 0.00 0.00 0.00 0.00 0.00 0.00 0.00 0.00 0.00 0.00 0.00 0.00 0.00 0.00 0.00 0.00 0.00 0.00 0.01 0.00 0.00 0.00 0.00 0.07 0.17 0.13 0.06 0.00
0.00 0.00 0.00 0.00 0.00 0.00 0.00 0.00 0.00 0.00 0.00 0.00 0.00 0.00 0.00 0.00 0.00 0.00 0.00 0.00 0.00 0.00 0.00 0.00 0.00 0.00 0.00 0.00 0.00 0.00 0.00 0.00 0.00 0.00 0.00 0.00 0.00 0.00 0.00 0.00 0.00 0.00 0.00 0.02 0.13 0.20 0.05 0.04 0.00
0.00 0.00 0.00 0.00 0.00 0.00 0.00 0.00 0.00 0.00 0.00 0.00 0.00 0.00 0.00 0.00 0.00 0.00 0.00 0.00 0.00 0.00 0.00 0.00 0.00 0.00 0.00 0.00 0.00 0.00 0.00 0.00 0.00 0.00 0.00 0.00 0.00 0.00 0.00 0.00 0.00 0.00 0.00 0.00 0.02 0.12 0.09 0.06 0.02
0.00 0.00 0.00 0.00 0.00 0.00 0.00 0.00 0.00 0.00 0.00 0.00 0.00 0.00 0.00 0.00 0.00 0.00 0.00 0.00 0.00 0.00 0.00 0.00 0.00 0.00 0.00 0.00 0.00 0.00 0.00 0.00 0.00 0.00 0.00 0.00 0.01 0.01 0.00 0.00 0.00 0.00 0.00 0.00 0.01 0.10 0.11 0.08 0.09
0.00 0.00 0.00 0.00 0.00 0.00 0.00 0.00 0.00 0.00 0.00 0.00 0.00 0.00 0.00 0.00 0.00 0.00 0.00 0.00 0.00 0.00 0.00 0.00 0.00 0.00 0.00 0.00 0.00 0.00 0.00 0.00 0.00 0.00 0.00 0.00 0.00 0.00 0.00 0.00 0.00 0.00 0.00 0.00 0.00 0.08 0.06 0.10 0.12
0.00 0.00 0.00 0.00 0.00 0.00 0.00 0.00 0.00 0.00 0.00 0.00 0.00 0.00 0.00 0.00 0.00 0.00 0.00 0.00 0.00 0.00 0.00 0.00 0.00 0.00 0.00 0.00 0.00 0.00 0.00 0.00 0.00 0.00 0.00 0.00 0.00 0.00 0.00 0.00 0.00 0.00 0.00 0.00 0.00 0.01 0.01 0.00 0.00
0.00 0.00 0.00 0.00 0.00 0.00 0.00 0.00 0.00 0.00 0.00 0.00 0.00 0.00 0.00 0.00 0.00 0.00 0.00 0.00 0.00 0.00 0.00 0.00 0.00 0.00 0.00 0.00 0.00 0.00 0.00 0.00 0.00 0.00 0.00 0.00 0.00 0.00 0.01 0.01 0.02 0.00 0.00 0.00 0.00 0.00 0.01 0.00 0.00
0.00 0.00 0.00 0.00 0.00 0.00 0.00 0.00 0.00 0.00 0.00 0.00 0.00 0.00 0.00 0.00 0.00 0.00 0.00 0.00 0.00 0.00 0.00 0.00 0.00 0.00 0.00 0.00 0.00 0.00 0.00 0.00 0.00 0.00 0.00 0.00 0.00 0.00 0.01 0.00 0.04 0.02 0.01 0.00 0.00 0.00 0.01 0.00 0.00
0.00 0.00 0.00 0.00 0.00 0.00 0.00 0.00 0.00 0.00 0.00 0.00 0.00 0.00 0.00 0.00 0.00 0.00 0.00 0.00 0.00 0.00 0.00 0.00 0.00 0.00 0.00 0.00 0.00 0.00 0.00 0.00 0.00 0.00 0.00 0.00 0.00 0.00 0.03 0.14 0.22 0.19 0.07 0.00 0.00 0.00 0.00 0.00 0.00
0.00 0.00 0.00 0.00 0.00 0.00 0.00 0.00 0.00 0.00 0.00 0.00 0.00 0.00 0.00 0.00 0.00 0.00 0.00 0.00 0.00 0.00 0.01 0.00 0.00 0.00 0.00 0.00 0.00 0.00 0.00 0.00 0.03 0.03 0.07 0.11 0.04 0.00 0.00 0.02 0.05 0.09 0.06 0.01 0.00 0.00 0.00 0.02 0.03
0.00 0.00 0.00 0.00 0.00 0.00 0.00 0.00 0.00 0.00 0.00 0.00 0.00 0.00 0.00 0.00 0.00 0.00 0.00 0.00 0.00 0.01 0.06 0.03 0.07 0.06 0.00 0.06 0.17 0.08 0.04 0.00 0.00 0.00 0.04 0.00 0.01 0.07 0.00 0.00 0.00 0.02 0.05 0.06 0.00 0.00 0.00 0.01 0.00
0.00 0.00 0.00 0.00 0.00 0.00 0.00 0.00 0.00 0.00 0.00 0.00 0.00 0.00 0.00 0.00 0.00 0.00 0.00 0.00 0.00 0.03 0.09 0.54 0.75 0.91 0.12 0.34 0.34 0.20 0.15 0.12 0.02 0.02 0.03 0.07 0.01 0.01 0.01 0.00 0.00 0.03 0.01 0.01 0.02 0.01 0.00 0.01 0.01
0.00 0.00 0.00 0.00 0.00 0.00 0.00 0.00 0.00 0.00 0.00 0.00 0.00 0.00 0.00 0.00 0.00 0.00 0.00 0.00 0.00 0.02 0.14 0.13 0.96 0.24 0.07 0.20 0.21 0.11 0.13 0.12 0.02 0.08 0.10 0.05 0.00 0.00 0.02 0.01 0.09 0.21 0.05 0.00 0.02 0.01 0.00 0.00 0.00
0.00 0.00 0.00 0.00 0.00 0.00 0.00 0.00 0.00 0.00 0.00 0.00 0.00 0.00 0.00 0.00 0.00 0.00 0.00 0.00 0.00 0.00 0.05 0.15 0.18 0.06 0.01 0.24 0.18 0.06 0.07 0.07 0.05 0.08 0.05 0.01 0.00 0.00 0.06 0.08 0.08 0.11 0.04 0.00 0.00 0.00 0.03 0.00 0.00
0.00 0.00 0.00 0.00 0.00 0.00 0.00 0.00 0.00 0.00 0.00 0.00 0.00 0.00 0.00 0.00 0.00 0.00 0.00 0.00 0.00 0.00 0.03 0.13 0.09 0.02 0.00 0.10 0.12 0.13 0.04 0.02 0.01 0.02 0.04 0.02 0.00 0.00 0.00 0.01 0.00 0.00 0.00 0.00 0.00 0.01 0.02 0.00 0.00
0.00 0.00 0.00 0.00 0.00 0.00 0.00 0.00 0.00 0.00 0.00 0.00 0.00 0.00 0.00 0.00 0.01 0.00 0.01 0.01 0.00 0.00 0.00 0.01 0.03 0.01 0.01 0.00 0.08 0.09 0.03 0.00 0.02 0.18 0.25 0.09 0.01 0.00 0.00 0.00 0.00 0.00 0.00 0.00 0.00 0.00 0.00 0.02 0.01
0.00 0.00 0.00 0.00 0.00 0.00 0.00 0.00 0.00 0.00 0.00 0.00 0.00 0.00 0.00 0.00 0.00 0.00 0.00 0.01 0.00 0.01 0.00 0.00 0.00 0.01 0.00 0.00 0.00 0.01 0.01 0.00 0.04 0.18 0.18 0.06 0.00 0.00 0.00 0.00 0.00 0.00 0.00 0.00 0.00 0.00 0.00 0.01 0.06
0.00 0.00 0.00 0.00 0.00 0.00 0.00 0.00 0.00 0.00 0.00 0.00 0.00 0.00 0.00 0.00 0.00 0.00 0.00 0.01 0.01 0.00 0.00 0.01 0.00 0.00 0.00 0.00 0.00 0.00 0.00 0.00 0.03 0.06 0.05 0.01 0.00 0.00 0.00 0.00 0.00 0.00 0.00 0.00 0.00 0.00 0.00 0.00 0.05
0.00 0.00 0.00 0.00 0.00 0.00 0.00 0.00 0.00 0.00 0.00 0.00 0.00 0.00 0.00 0.00 0.00 0.00 0.00 0.02 0.02 0.03 0.02 0.01 0.00 0.00 0.00 0.00 0.00 0.00 0.00 0.00 0.02 0.02 0.00 0.00 0.00 0.00 0.00 0.00 0.00 0.00 0.00 0.00 0.00 0.00 0.00 0.00 0.00
0.00 0.00 0.00 0.00 0.00 0.00 0.00 0.00 0.00 0.00 0.00 0.00 0.00 0.00 0.00 0.00 0.00 0.00 0.00 0.04 0.07 0.09 0.05 0.00 0.00 0.00 0.00 0.00 0.00 0.00 0.00 0.00 0.00 0.00 0.00 0.00 0.00 0.00 0.00 0.00 0.00 0.00 0.00 0.00 0.00 0.00 0.00 0.00 0.00
0.00 0.00 0.00 0.00 0.00 0.00 0.00 0.00 0.00 0.00 0.00 0.00 0.00 0.00 0.00 0.00 0.00 0.00 0.00 0.03 0.07 0.04 0.01 0.00 0.00 0.00 0.00 0.00 0.00 0.00 0.00 0.00 0.00 0.00 0.00 0.00 0.00 0.00 0.00 0.00 0.00 0.00 0.00 0.00 0.00 0.00 0.00 0.00 0.00
0.00 0.00 0.00 0.00 0.00 0.00 0.00 0.00 0.00 0.00 0.00 0.00 0.00 0.00 0.00 0.00 0.00 0.00 0.00 0.01 0.05 0.02 0.00 0.00 0.00 0.00 0.00 0.00 0.00 0.00 0.00 0.00 0.00 0.00 0.00 0.00 0.00 0.00 0.00 0.00 0.00 0.00 0.00 0.00 0.00 0.00 0.00 0.00 0.00
0.00 0.00 0.00 0.00 0.00 0.00 0.00 0.00 0.00 0.00 0.00 0.00 0.00 0.00 0.00 0.00 0.00 0.01 0.01 0.02 0.04 0.01 0.00 0.00 0.00 0.00 0.00 0.00 0.00 0.00 0.00 0.00 0.00 0.00 0.00 0.00 0.00 0.00 0.00 0.00 0.00 0.00 0.00 0.00 0.00 0.00 0.00 0.00 0.00
0.00 0.00 0.00 0.00 0.00 0.00 0.00 0.00 0.00 0.00 0.00 0.00 0.00 0.00 0.00 0.00 0.00 0.01 0.01 0.00 0.03 0.00 0.00 0.00 0.00 0.00 0.00 0.00 0.00 0.00 0.00 0.00 0.00 0.00 0.00 0.00 0.00 0.00 0.00 0.00 0.00 0.00 0.00 0.00 0.00 0.00 0.00 0.00 0.00
0.00 0.00 0.00 0.00 0.00 0.00 0.00 0.00 0.00 0.00 0.00 0.00 0.00 0.00 0.00 0.00 0.00 0.00 0.00 0.00 0.00 0.00 0.00 0.00 0.00 0.00 0.01 0.01 0.00 0.00 0.00 0.00 0.00 0.00 0.00 0.00 0.00 0.00 0.00 0.00 0.00 0.00 0.00 0.00 0.00 0.00 0.00 0.00 0.00
0.00 0.00 0.00 0.00 0.00 0.00 0.00 0.00 0.00 0.00 0.00 0.00 0.00 0.00 0.00 0.00 0.00 0.00 0.00 0.01 0.00 0.00 0.00 0.00 0.00 0.07 0.22 0.22 0.10 0.01 0.00 0.00 0.00 0.00 0.00 0.00 0.00 0.00 0.00 0.00 0.00 0.00 0.00 0.00 0.00 0.00 0.00 0.00 0.00
0.00 0.00 0.00 0.00 0.00 0.00 0.00 0.00 0.00 0.00 0.00 0.00 0.00 0.00 0.00 0.00 0.01 0.00 0.02 0.03 0.00 0.00 0.00 0.00 0.00 0.12 0.56 0.39 0.13 0.01 0.00 0.00 0.00 0.00 0.00 0.00 0.00 0.00 0.00 0.00 0.00 0.00 0.00 0.00 0.00 0.00 0.00 0.00 0.00
MSLP
1009.49 1009.98 1010.41 1010.47 1010.88 1010.38 1010.21 1009.65 1008.75 1008.35 1008.18 1008.21 1008.36 1008.78 1009.54 1010.31 1010.98 1012.30 1012.14 1012.19 1012.39 1012.96 1013.10 1013.44 1013.75 1014.05 1014.27 1014.64 1014.92 1015.05 1015.23 1015.37 1015.53 1015.69 1015.90 1016.20 1016.48 1016.69 1016.87 1017.04 1017.16 1017.21 1017.33 1017.32 1017.58 1017.75 1017.86 1017.86 1017.96
1009.32 1009.89 1010.46 1010.25 1010.48 1010.75 1010.14 1009.28 1008.76 1008.37 1008.37 1008.34 1008.50 1009.04 1009.72 1010.63 1011.10 1011.68 1012.14 1012.32 1012.40 1012.77 1013.09 1013.40 1013.84 1014.24 1014.59 1014.84 1015.06 1015.14 1015.32 1015.53 1015.74 1015.90 1016.00 1016.22 1016.52 1016.72 1016.94 1017.09 1017.23 1017.49 1017.43 1017.57 1017.55 1017.79 1018.02 1018.05 1018.12
1009.52 1009.50 1009.97 1010.08 1010.28 1010.30 1009.56 1008.92 1008.66 1008.40 1008.28 1008.43 1008.96 1009.29 1010.04 1011.07 1011.60 1011.87 1011.98 1012.36 1012.52 1012.98 1013.26 1013.60 1014.02 1014.37 1014.63 1014.82 1015.15 1015.40 1015.61 1015.82 1016.02 1016.20 1016.36 1016.52 1016.71 1016.91 1017.10 1017.28 1017.38 1017.51 1017.55 1017.53 1017.69 1017.82 1018.12 1018.12 1018.29
1009.12 1009.69 1009.67 1009.58 1009.78 1009.31 1008.85 1008.58 1008.54 1008.64 1008.59 1008.81 1009.39 1010.08 1010.51 1010.96 1011.50 1011.93 1012.32 1012.59 1012.94 1013.24 1013.43 1013.72 1014.10 1014.39 1014.77 1015.09 1015.35 1015.58 1015.72 1015.96 1016.15 1016.37 1016.59 1016.73 1016.91 1017.02 1017.20 1017.31 1017.33 1017.47 1017.57 1017.63 1017.63 1017.95 1017.98 1018.07 1018.43
1008.71 1009.04 1009.43 1009.46 1009.41 1008.80 1008.39 1008.35 1008.55 1008.66 1008.88 1009.33 1009.66 1010.76 1011.30 1011.63 1011.64 1012.22 1012.66 1012.83 1013.10 1013.58 1013.70 1013.91 1014.14 1014.45 1014.85 1015.18 1015.44 1015.69 1015.83 1016.08 1016.32 1016.48 1016.66 1016.87 1017.02 1017.17 1017.27 1017.36 1017.44 1017.53 1017.72 1017.76 1017.82 1017.95 1018.14 1018.26 1018.49
1008.39 1008.71 1009.46 1009.64 1009.07 1008.50 1008.39 1008.39 1008.59 1008.81 1009.15 1009.63 1010.26 1011.07 1012.01 1012.15 1012.13 1012.51 1012.93 1013.21 1013.30 1013.67 1013.85 1014.06 1014.25 1014.62 1014.89 1015.21 1015.51 1015.85 1015.99 1016.09 1016.32 1016.45 1016.70 1016.90 1017.12 1017.21 1017.31 1017.43 1017.58 1017.67 1017.77 1017.83 1017.84 1017.97 1018.21 1018.37 1018.58
1007.89 1008.61 1009.46 1009.27 1008.83 1008.44 1008.30 1008.33 1008.72 1008.84 1009.15 1009.61 1009.93 1011.44 1012.41 1012.65 1012.78 1012.90 1013.24 1013.54 1013.85 1013.97 1014.11 1014.29 1014.50 1014.80 1015.15 1015.36 1015.58 1015.88 1016.01 1016.13 1016.35 1016.58 1016.84 1017.07 1017.21 1017.37 1017.52 1017.60 1017.59 1017.61 1017.72 1017.82 1017.85 1017.93 1018.14 1018.33 1018.57
1007.36 1008.58 1009.34 1008.98 1008.46 1008.00 1007.79 1008.27 1008.34 1008.63 1009.19 1009.52 1010.07 1011.18 1012.16 1012.43 1012.87 1013.32 1013.70 1014.05 1014.21 1014.39 1014.49 1014.77 1014.82 1014.97 1015.18 1015.27 1015.48 1015.82 1016.08 1016.27 1016.41 1016.66 1016.88 1017.05 1017.22 1017.41 1017.60 1017.78 1017.88 1017.75 1017.70 1017.80 1017.86 1017.86 1018.02 1018.27 1018.62
1006.97 1008.31 1008.82 1008.31 1007.93 1007.63 1007.63 1008.11 1008.59 1008.40 1008.99 1009.59 1010.11 1010.60 1010.86 1011.98 1012.89 1013.69 1014.11 1014.49 1014.73 1014.94 1015.04 1015.00 1015.14 1015.26 1015.37 1015.50 1015.44 1015.51 1015.97 1016.37 1016.60 1016.67 1016.87 1017.04 1017.30 1017.46 1017.59 1017.81 1017.96 1017.92 1017.82 1017.87 1017.95 1017.88 1018.05 1018.23 1018.48
1007.11 1008.11 1007.66 1007.22 1006.81 1006.97 1007.39 1007.73 1008.37 1008.86 1009.32 1010.07 1010.64 1010.84 1011.28 1012.20 1012.80 1013.58 1014.05 1014.40 1014.76 1014.90 1014.99 1015.21 1015.38 1015.42 1015.54 1015.53 1015.61 1015.75 1015.86 1016.20 1016.67 1016.92 1017.00 1017.17 1017.42 1017.51 1017.62 1017.65 1017.73 1017.77 1017.82 1017.84 1018.01 1018.08 1018.17 1018.31 1018.55
1007.11 1007.20 1007.10 1006.73 1006.52 1006.26 1006.91 1007.70 1008.12 1008.73 1009.61 1009.73 1010.23 1011.29 1011.85 1012.29 1012.94 1013.42 1013.87 1013.92 1014.10 1014.65 1014.90 1015.14 1015.32 1015.34 1015.63 1015.68 1015.90 1015.89 1016.04 1016.31 1016.44 1016.77 1017.02 1017.16 1017.38 1017.45 1017.50 1017.66 1017.54 1017.68 1017.67 1017.92 1017.98 1018.17 1018.33 1018.47 1018.61
1006.50 1006.31 1006.38 1006.31 1006.28 1006.49 1006.92 1007.38 1008.07 1008.46 1008.35 1008.38 1009.74 1010.68 1011.82 1012.33 1012.77 1013.15 1013.63 1014.09 1014.34 1014.46 1014.62 1014.98 1015.13 1015.47 1015.58 1015.65 1015.87 1016.03 1016.22 1016.20 1016.42 1016.59 1016.82 1017.07 1017.26 1017.43 1017.47 1017.49 1017.43 1017.53 1017.58 1017.75 1017.96 1018.14 1018.31 1018.44 1018.50
1006.38 1006.14 1006.09 1006.05 1006.20 1006.35 1006.86 1007.30 1007.96 1008.50 1008.53 1008.99 1010.05 1011.16 1011.84 1012.18 1012.49 1012.75 1013.08 1013.83 1014.34 1014.47 1014.48 1015.00 1015.59 1015.78 1015.64 1015.48 1015.71 1016.00 1016.14 1016.11 1016.05 1016.25 1016.38 1016.55 1016.82 1017.10 1017.20 1017.25 1017.30 1017.29 1017.49 1017.63 1017.70 1017.92 1018.09 1018.28 1018.39
1006.34 1006.08 1005.67 1005.55 1005.86 1005.98 1006.82 1007.58 1007.88 1008.61 1008.88 1009.72 1010.36 1010.92 1011.49 1011.96 1012.12 1012.76 1013.22 1013.68 1013.95 1014.23 1014.96 1016.11 1016.95 1016.61 1015.59 1015.92 1015.66 1015.64 1015.77 1016.06 1016.04 1015.97 1016.13 1016.18 1016.55 1016.74 1016.85 1016.99 1017.04 1017.17 1017.50 1017.70 1017.62 1017.79 1017.98 1018.21 1018.33
1006.38 1006.30 1006.03 1005.90 1005.84 1006.12 1006.47 1007.80 1007.89 1008.43 1008.99 1009.87 1010.60 1010.97 1011.31 1011.68 1012.38 1012.37 1012.61 1013.31 1013.51 1014.10 1015.21 1015.79 1016.56 1014.62 1015.35 1015.57 1015.57 1015.78 1016.01 1015.97 1015.47 1015.51 1015.79 1016.00 1016.13 1016.32 1016.48 1016.71 1016.91 1017.14 1017.35 1017.42 1017.53 1017.66 1017.80 1018.07 1018.17
1006.99 1006.95 1007.04 1005.86 1005.90 1006.15 1006.49 1007.27 1007.60 1008.32 1008.92 1009.79 1010.22 1010.73 1011.16 1011.36 1011.49 1012.14 1012.75 1013.32 1013.51 1014.02 1014.81 1015.05 1013.53 1013.51 1014.62 1015.41 1015.85 1015.84 1016.02 1016.12 1015.72 1016.18 1015.81 1015.83 1015.71 1015.84 1016.14 1016.46 1016.76 1017.07 1017.26 1017.27 1017.44 1017.56 1017.84 1018.09 1018.23
1008.35 1008.07 1007.72 1006.65 1005.80 1006.02 1006.56 1007.00 1007.23 1008.13 1008.86 1009.51 1009.90 1010.39 1010.77 1011.11 1011.47 1011.86 1012.64 1013.00 1013.19 1013.76 1014.08 1014.24 1013.60 1014.01 1015.07 1015.60 1015.91 1016.08 1016.21 1016.04 1016.10 1015.94 1015.92 1015.47 1015.38 1015.48 1015.72 1015.99 1016.34 1016.63 1016.74 1016.90 1017.11 1017.42 1017.75 1017.84 1017.88
1008.93 1008.68 1007.97 1007.46 1006.29 1006.10 1006.30 1006.84 1007.48 1008.19 1008.80 1009.44 1009.72 1010.14 1010.55 1010.84 1010.85 1011.58 1012.37 1012.59 1012.89 1013.66 1013.85 1014.17 1014.25 1014.68 1015.33 1015.74 1016.04 1016.18 1016.15 1015.99 1016.05 1015.97 1016.01 1015.31 1015.10 1015.17 1015.41 1015.76 1016.13 1016.34 1016.62 1016.76 1017.00 1017.21 1017.44 1017.60 1017.71
1008.59 1008.61 1008.42 1007.21 1006.51 1006.50 1006.69 1007.12 1007.47 1008.37 1008.94 1009.23 1009.51 1009.93 1010.14 1010.40 1010.88 1011.50 1012.29 1012.61 1012.99 1013.70 1013.99 1014.26 1014.55 1014.89 1015.64 1015.84 1016.05 1016.21 1016.39 1016.39 1016.27 1016.20 1016.17 1015.36 1015.05 1015.08 1015.41 1015.78 1015.97 1016.08 1016.39 1016.47 1016.68 1016.97 1017.16 1017.30 1017.54
1008.27 1008.30 1008.05 1007.23 1006.87 1006.59 1007.06 1007.54 1007.67 1008.06 1007.91 1007.93 1008.49 1009.48 1010.05 1010.43 1010.83 1011.62 1012.30 1013.13 1013.06 1013.47 1013.93 1014.48 1014.66 1015.09 1015.61 1015.73 1016.09 1015.85 1015.91 1016.23 1016.42 1016.15 1016.17 1015.53 1015.17 1015.39 1015.62 1015.85 1016.09 1016.17 1016.29 1016.32 1016.43 1016.67 1016.88 1016.98 1017.32
1007.91 1008.02 1007.80 1007.88 1007.69 1007.79 1007.90 1008.42 1008.42 1008.15 1008.08 1008.34 1008.83 1009.42 1009.84 1010.14 1010.50 1011.62 1012.43 1013.03 1013.32 1013.64 1014.06 1014.47 1014.87 1015.31 1015.56 1015.63 1015.78 1016.05 1016.06 1016.18 1016.30 1016.48 1016.33 1015.86 1015.70 1015.87 1015.92 1015.92 1015.93 1016.06 1016.11 1016.12 1016.12 1016.28 1016.49 1016.75 1016.98
1007.63 1007.41 1007.85 1008.29 1008.88 1009.33 1009.46 1010.37 1009.11 1008.93 1009.07 1008.57 1008.61 1008.91 1009.30 1009.83 1010.39 1011.21 1011.94 1012.79 1013.02 1013.47 1013.99 1014.41 1015.01 1015.55 1015.73 1015.75 1015.80 1015.92 1016.03 1016.31 1016.48 1016.47 1016.51 1016.29 1016.14 1016.05 1016.00 1015.99 1015.88 1015.89 1015.91 1015.80 1015.86 1015.94 1016.13 1016.43 1016.65
1007.29 1007.51 1008.54 1009.32 1010.20 1010.61 1011.02 1011.14 1009.62 1009.26 1009.11 1009.10 1009.00 1008.92 1009.04 1009.30 1009.89 1010.47 1011.66 1012.49 1013.05 1013.52 1013.86 1014.31 1015.00 1015.78 1015.86 1015.90 1015.73 1016.14 1016.36 1016.40 1016.52 1016.70 1016.75 1016.62 1016.34 1016.06 1015.91 1015.74 1015.59 1015.56 1015.51 1015.45 1015.52 1015.64 1015.73 1015.95 1016.17
1007.26 1008.36 1009.83 1011.09 1011.80 1012.53 1012.20 1011.91 1010.96 1010.32 1010.01 1009.47 1009.17 1009.15 1008.90 1009.09 1010.28 1010.88 1011.86 1012.58 1013.47 1013.25 1014.05 1014.30 1015.17 1015.84 1015.87 1015.97 1015.87 1016.06 1016.27 1016.62 1016.73 1016.76 1016.64 1016.64 1016.59 1016.30 1016.03 1015.82 1015.66 1015.45 1015.45 1015.34 1015.27 1015.32 1015.27 1015.41 1015.80
1007.82 1009.60 1011.51 1012.95 1013.64 1013.50 1012.72 1012.30 1010.90 1009.78 1009.64 1009.50 1009.26 1008.94 1009.23 1009.75 1010.21 1010.94 1011.47 1012.56 1012.73 1013.22 1013.83 1014.28 1014.97 1015.49 1015.58 1015.77 1015.69 1015.52 1015.73 1016.52 1016.82 1016.91 1016.84 1016.70 1016.67 1016.66 1016.32 1015.95 1015.76 1015.68 1015.51 1015.28 1015.07 1015.18 1015.00 1015.12 1015.46
1008.36 1009.72 1011.71 1013.39 1014.70 1014.02 1012.99 1012.24 1010.23 1009.51 1009.13 1008.97 1008.76 1009.09 1009.72 1009.87 1010.35 1010.91 1011.17 1011.68 1012.57 1013.00 1013.73 1014.11 1014.20 1014.91 1015.00 1015.16 1015.31 1015.58 1015.63 1016.17 1016.78 1016.83 1016.88 1016.86 1016.91 1016.99 1016.76 1016.42 1016.15 1015.90 1015.68 1015.40 1015.30 1015.20 1015.14 1015.15 1015.37
1008.60 1009.95 1011.24 1013.09 1014.85 1014.64 1013.54 1012.24 1010.29 1009.63 1009.49 1009.75 1009.88 1009.47 1009.46 1009.86 1010.21 1010.46 1010.87 1011.68 1012.48 1012.85 1013.54 1013.81 1014.13 1014.56 1014.66 1015.04 1014.76 1015.24 1015.90 1016.15 1016.97 1017.30 1017.29 1017.36 1017.16 1017.07 1016.96 1016.88 1016.59 1016.10 1016.13 1015.94 1015.67 1015.59 1015.65 1015.46 1015.48
1007.62 1009.37 1011.39 1012.92 1014.59 1014.93 1013.94 1012.89 1011.53 1010.43 1010.20 1010.88 1010.61 1010.86 1010.86 1010.71 1010.51 1010.92 1011.16 1011.63 1012.30 1013.15 1013.12 1013.58 1014.20 1014.43 1014.64 1015.02 1015.38 1015.56 1016.11 1016.52 1017.04 1017.39 1017.48 1017.70 1017.52 1017.44 1017.41 1017.20 1016.93 1016.58 1016.71 1016.46 1016.22 1016.22 1016.14 1016.14 1015.92
1008.41 1009.61 1011.55 1013.03 1014.11 1014.57 1014.37 1012.64 1010.38 1010.15 1010.81 1011.15 1010.99 1011.06 1011.09 1011.17 1011.10 1011.13 1011.45 1012.27 1012.82 1013.34 1013.16 1013.67 1014.44 1014.74 1014.98 1015.24 1015.80 1015.82 1016.38 1016.79 1017.23 1017.63 1017.86 1017.81 1017.80 1017.95 1017.86 1017.47 1017.31 1017.02 1017.03 1017.02 1016.83 1016.75 1016.79 1016.62 1016.44
1007.85 1009.05 1010.48 1012.76 1014.25 1014.39 1013.74 1011.66 1010.10 1010.37 1010.84 1011.44 1011.34 1011.24 1011.28 1011.12 1011.20 1011.29 1011.50 1012.07 1013.10 1013.69 1013.73 1014.38 1014.67 1015.16 1015.13 1015.27 1015.90 1015.94 1016.65 1016.87 1017.35 1017.80 1017.93 1018.14 1018.15 1018.29 1018.27 1017.92 1017.83 1017.78 1017.45 1017.64 1017.46 1017.34 1017.42 1017.42 1017.19
Thickness
5827 5822 5820 5810 5781 5775 5761 5774 5794 5792 5795 5805 5809 5799 5788 5783 5775 5752 5784 5786 5785 5779 5778 5776 5774 5772 5770 5767 5764 5764 5763 5763 5762 5762 5760 5758 5756 5754 5754 5754 5754 5754 5754 5754 5752 5752 5753 5754 5754
5833 5827 5816 5803 5772 5752 5757 5787 5785 5795 5801 5805 5803 5798 5786 5771 5784 5779 5778 5784 5783 5780 5779 5777 5773 5769 5765 5764 5763 5763 5762 5761 5760 5760 5760 5759 5758 5756 5754 5754 5753 5752 5752 5751 5749 5750 5751 5752 5753
5835 5834 5808 5789 5769 5757 5766 5794 5795 5803 5809 5806 5797 5801 5788 5774 5779 5778 5786 5783 5781 5780 5778 5776 5771 5767 5765 5765 5762 5760 5759 5759 5757 5757 5756 5756 5755 5755 5753 5752 5752 5752 5752 5751 5750 5749 5750 5751 5752
5834 5824 5816 5788 5781 5793 5793 5800 5806 5803 5810 5810 5802 5784 5793 5795 5784 5784 5785 5784 5780 5779 5778 5774 5770 5767 5765 5762 5760 5759 5759 5758 5756 5755 5754 5754 5753 5753 5752 5752 5753 5753 5752 5752 5752 5749 5748 5751 5751
5838 5822 5795 5789 5784 5799 5809 5812 5811 5801 5803 5802 5803 5780 5779 5788 5792 5787 5783 5784 5780 5778 5776 5773 5770 5768 5764 5762 5760 5759 5758 5757 5754 5754 5753 5752 5751 5751 5750 5750 5750 5751 5752 5751 5750 5748 5748 5749 5749
5822 5821 5786 5777 5790 5805 5810 5815 5812 5805 5806 5803 5794 5786 5780 5792 5790 5788 5785 5783 5781 5778 5775 5773 5770 5767 5763 5760 5759 5757 5757 5757 5755 5754 5752 5751 5750 5750 5749 5749 5748 5749 5750 5751 5751 5749 5746 5747 5748
5821 5809 5790 5791 5794 5801 5806 5819 5807 5805 5806 5801 5809 5780 5783 5787 5792 5790 5786 5784 5780 5776 5774 5772 5768 5765 5760 5758 5756 5756 5756 5756 5754 5753 5750 5749 5749 5747 5747 5746 5747 5748 5748 5749 5750 5750 5748 5748 5747
5832 5814 5796 5798 5794 5800 5819 5818 5820 5815 5807 5820 5812 5780 5778 5791 5794 5790 5785 5781 5778 5775 5771 5769 5766 5765 5761 5760 5757 5755 5754 5753 5752 5751 5750 5748 5748 5746 5745 5745 5744 5746 5748 5748 5749 5750 5750 5748 5744
5848 5799 5791 5803 5802 5814 5824 5814 5824 5833 5818 5817 5814 5806 5808 5803 5797 5786 5781 5777 5773 5770 5768 5766 5764 5762 5761 5759 5758 5757 5753 5750 5749 5749 5748 5747 5747 5746 5745 5743 5743 5744 5746 5747 5747 5748 5748 5747 5746
5826 5796 5814 5829 5832 5824 5827 5825 5821 5817 5813 5807 5805 5812 5811 5803 5797 5786 5780 5775 5771 5769 5768 5764 5760 5760 5759 5758 5758 5757 5756 5752 5749 5747 5746 5746 5745 5745 5744 5744 5744 5744 5745 5746 5745 5745 5746 5745 5745
5824 5811 5829 5835 5841 5843 5831 5827 5832 5817 5804 5812 5806 5804 5804 5802 5796 5789 5784 5781 5777 5773 5770 5765 5762 5760 5756 5755 5754 5754 5754 5751 5749 5747 5746 5745 5743 5744 5743 5743 5745 5745 5745 5744 5743 5743 5743 5744 5744
5824 5838 5839 5841 5844 5840 5831 5836 5826 5826 5828 5838 5826 5818 5808 5801 5796 5791 5785 5780 5776 5774 5772 5767 5762 5757 5755 5753 5750 5749 5748 5750 5749 5748 5747 5745 5743 5742 5742 5743 5741 5744 5744 5744 5743 5742 5742 5742 5743
5831 5838 5842 5845 5844 5844 5842 5833 5829 5827 5837 5837 5828 5817 5808 5804 5800 5797 5794 5786 5778 5772 5771 5766 5757 5754 5752 5752 5748 5744 5743 5745 5749 5748 5747 5747 5745 5743 5742 5743 5743 5743 5743 5743 5743 5742 5741 5741 5741
5840 5841 5843 5852 5847 5847 5833 5832 5834 5831 5837 5828 5823 5816 5812 5807 5805 5796 5790 5783 5779 5776 5765 5751 5740 5738 5750 5747 5743 5743 5743 5742 5745 5749 5748 5748 5745 5744 5743 5743 5744 5744 5740 5739 5741 5740 5740 5739 5738
5840 5832 5836 5841 5845 5840 5843 5821 5821 5834 5837 5825 5820 5818 5814 5810 5804 5800 5796 5786 5785 5777 5764 5759 5742 5744 5747 5744 5739 5738 5738 5739 5746 5750 5750 5747 5747 5747 5745 5743 5743 5741 5740 5740 5740 5740 5739 5738 5737
5818 5816 5797 5837 5842 5842 5839 5801 5833 5837 5834 5824 5824 5820 5815 5812 5811 5806 5797 5788 5785 5777 5768 5764 5774 5767 5756 5743 5736 5736 5736 5736 5742 5742 5747 5747 5749 5749 5747 5744 5741 5739 5737 5738 5738 5739 5736 5734 5733
5792 5785 5796 5811 5842 5840 5834 5816 5836 5838 5833 5826 5826 5822 5818 5813 5810 5808 5799 5793 5788 5778 5773 5770 5772 5764 5751 5738 5730 5729 5728 5732 5736 5740 5743 5747 5750 5750 5748 5745 5742 5740 5739 5739 5736 5734 5732 5733 5733
5782 5785 5792 5795 5826 5835 5826 5825 5829 5832 5831 5826 5825 5822 5817 5814 5814 5810 5800 5798 5791 5781 5777 5771 5768 5761 5748 5739 5727 5723 5722 5727 5731 5737 5739 5746 5749 5748 5747 5744 5741 5739 5738 5737 5735 5731 5731 5731 5730
5799 5792 5786 5804 5831 5827 5820 5823 5825 5824 5826 5824 5825 5820 5819 5817 5817 5810 5800 5796 5791 5782 5776 5771 5766 5759 5745 5736 5725 5718 5716 5722 5728 5734 5736 5743 5745 5746 5745 5742 5740 5739 5737 5736 5735 5732 5730 5729 5728
5796 5790 5790 5808 5822 5827 5819 5816 5823 5824 5832 5836 5833 5824 5820 5817 5814 5807 5798 5791 5789 5783 5778 5769 5765 5756 5745 5739 5728 5725 5723 5725 5728 5733 5733 5739 5744 5743 5741 5739 5738 5736 5734 5734 5733 5731 5728 5727 5726
5798 5791 5800 5800 5809 5814 5811 5799 5807 5826 5829 5831 5831 5828 5823 5818 5815 5804 5796 5787 5786 5781 5774 5769 5763 5755 5748 5744 5738 5731 5730 5732 5731 5730 5734 5738 5739 5737 5737 5736 5735 5735 5734 5732 5731 5730 5727 5724 5723
5788 5812 5812 5807 5790 5771 5793 5753 5792 5807 5803 5819 5824 5825 5822 5819 5817 5808 5799 5789 5788 5784 5776 5769 5760 5753 5748 5745 5741 5737 5734 5731 5731 5732 5732 5734 5734 5734 5734 5733 5733 5733 5732 5732 5731 5730 5728 5723 5719
5797 5817 5805 5796 5777 5777 5774 5754 5779 5798 5804 5809 5816 5820 5821 5822 5821 5814 5802 5792 5788 5784 5777 5769 5759 5750 5746 5743 5743 5737 5734 5734 5732 5730 5729 5730 5731 5732 5732 5734 5733 5733 5733 5733 5732 5730 5727 5723 5720
5812 5798 5777 5762 5755 5737 5758 5755 5762 5780 5793 5800 5816 5818 5821 5821 5814 5808 5798 5790 5780 5784 5774 5767 5755 5748 5746 5741 5741 5738 5737 5733 5730 5729 5728 5728 5728 5730 5731 5732 5732 5732 5732 5732 5731 5729 5728 5725 5720
5794 5765 5723 5733 5719 5725 5755 5753 5766 5792 5801 5806 5811 5817 5816 5814 5810 5804 5798 5787 5782 5777 5770 5763 5754 5748 5748 5744 5742 5744 5741 5734 5730 5728 5729 5729 5728 5726 5727 5730 5731 5730 5729 5729 5730 5727 5727 5724 5719
5784 5771 5724 5722 5708 5727 5750 5753 5772 5802 5808 5811 5819 5817 5812 5810 5807 5802 5799 5792 5779 5773 5768 5763 5760 5752 5751 5747 5746 5743 5742 5738 5732 5730 5728 5728 5726 5723 5724 5726 5726 5726 5727 5728 5728 5725 5725 5723 5720
5776 5763 5767 5721 5716 5721 5732 5759 5787 5799 5802 5801 5804 5810 5811 5808 5804 5802 5798 5788 5778 5773 5765 5763 5759 5753 5749 5743 5742 5739 5736 5735 5728 5724 5723 5721 5721 5721 5721 5720 5722 5726 5724 5725 5726 5723 5720 5721 5719
5794 5782 5748 5729 5718 5722 5725 5737 5745 5785 5791 5787 5793 5792 5794 5798 5799 5796 5793 5786 5778 5768 5767 5764 5757 5750 5742 5734 5730 5729 5727 5727 5723 5722 5720 5718 5717 5716 5716 5718 5720 5722 5720 5723 5722 5720 5719 5717 5717
5773 5760 5740 5734 5723 5708 5708 5728 5773 5783 5783 5783 5788 5790 5789 5791 5792 5790 5787 5778 5771 5764 5765 5760 5751 5742 5729 5717 5716 5721 5720 5720 5719 5717 5715 5714 5714 5711 5712 5717 5718 5719 5719 5718 5719 5720 5717 5716 5716
5788 5770 5755 5727 5730 5710 5714 5736 5791 5787 5785 5779 5783 5787 5787 5790 5788 5785 5782 5774 5763 5756 5754 5750 5746 5736 5720 5709 5712 5719 5717 5717 5715 5713 5712 5709 5708 5705 5706 5711 5713 5712 5716 5712 5714 5715 5713 5710 5709